TimeCST,TemperatureF,Dew PointF,Humidity,Sea Level PressureIn,VisibilityMPH,Wind Direction,Wind SpeedMPH,Gust SpeedMPH,PrecipitationIn,Events,Conditions,WindDirDegrees,DateUTC
12:53 AM,45.0,45.0,100,30.16,4.0,Calm,Calm,-,N/A,Fog,Patches of Fog,0,2012-11-20 06:53:00
1:53 AM,42.1,41.0,96,30.15,6.0,Calm,Calm,-,N/A,Fog,Patches of Fog,0,2012-11-20 07:53:00
2:21 AM,42.8,42.8,100,30.16,6.0,NNW,5.8,-,N/A,Fog,Patches of Fog,330,2012-11-20 08:21:00
2:31 AM,42.8,41.0,93,30.17,6.0,NNW,5.8,-,N/A,Fog,Patches of Fog,330,2012-11-20 08:31:00
2:53 AM,43.0,41.0,93,30.17,8.0,NNW,4.6,-,N/A,,Clear,340,2012-11-20 08:53:00
3:53 AM,44.1,39.9,85,30.16,10.0,NNW,9.2,-,N/A,,Clear,330,2012-11-20 09:53:00
4:53 AM,41.0,37.0,86,30.18,10.0,NNW,6.9,-,N/A,,Clear,330,2012-11-20 10:53:00
5:53 AM,41.0,36.0,82,30.20,10.0,NNW,5.8,-,N/A,,Clear,330,2012-11-20 11:53:00
6:53 AM,41.0,35.1,79,30.22,10.0,NNW,5.8,-,N/A,,Clear,340,2012-11-20 12:53:00
7:53 AM,42.1,36.0,79,30.25,10.0,NW,5.8,-,N/A,,Clear,320,2012-11-20 13:53:00
8:53 AM,46.9,37.9,71,30.26,10.0,North,6.9,-,N/A,,Clear,350,2012-11-20 14:53:00
9:53 AM,52.0,39.0,61,30.27,10.0,North,5.8,-,N/A,,Clear,360,2012-11-20 15:53:00
10:53 AM,57.9,39.9,51,30.26,10.0,NE,4.6,-,N/A,,Clear,40,2012-11-20 16:53:00
11:53 AM,63.0,39.9,43,30.24,10.0,Variable,3.5,-,N/A,,Clear,0,2012-11-20 17:53:00
12:53 PM,66.0,39.0,37,30.21,10.0,NW,3.5,-,N/A,,Clear,320,2012-11-20 18:53:00
1:53 PM,68.0,37.9,33,30.19,10.0,Calm,Calm,-,N/A,,Clear,0,2012-11-20 19:53:00
2:53 PM,69.1,37.9,32,30.19,10.0,Calm,Calm,-,N/A,,Clear,0,2012-11-20 20:53:00
3:53 PM,69.1,37.9,32,30.18,10.0,Calm,Calm,-,N/A,,Clear,0,2012-11-20 21:53:00
4:53 PM,64.9,37.9,37,30.19,10.0,Calm,Calm,-,N/A,,Clear,0,2012-11-20 22:53:00
5:53 PM,59.0,37.9,46,30.19,10.0,SSE,3.5,-,N/A,,Clear,160,2012-11-20 23:53:00
6:53 PM,52.0,37.9,59,30.21,10.0,South,4.6,-,N/A,,Clear,170,2012-11-21 00:53:00
7:53 PM,50.0,37.9,63,30.21,10.0,Calm,Calm,-,N/A,,Clear,0,2012-11-21 01:53:00
8:53 PM,48.9,39.0,69,30.21,10.0,Calm,Calm,-,N/A,,Clear,0,2012-11-21 02:53:00
9:53 PM,43.0,36.0,76,30.22,10.0,SSW,3.5,-,N/A,,Clear,210,2012-11-21 03:53:00
10:53 PM,45.0,37.9,76,30.21,10.0,South,4.6,-,N/A,,Clear,190,2012-11-21 04:53:00
11:53 PM,43.0,37.0,80,30.20,10.0,South,3.5,-,N/A,,Clear,170,2012-11-21 05:53:00